Location: Newark
(35.5300°N, 14.3000°E)
Time: 04:59:20
(UTC+00:00)

Explorer 11/Cluster Stage 4 - Pass Details

Date: 23 November 2019
Orbit: 467 x 1259 km, 28.8° (Epoch: 05 December)

Event Time Altitude Azimuth Distance (km) Brightness Sun altitude
Rises 17:21:48 0° 240° (WSW) 2,728 10.8 -18.1°
Reaches altitude 10° 17:24:04 10° 230° (SW) 1,928 9.5 -18.5°
Maximum altitude 17:28:04 32° 166° (SSE) 1,159 7.4 -19.3°
Enters shadow 17:29:52 25° 129° (SE) 1,426 7.5 -19.7°
